sat.trackr.live / text

‹ back to catalog

STARLINK-5643

NORAD 55431 · 2023-014AS

PAYLOAD ACTIVE UNKNOWN

§ Identity

Operator
Country
US
Launch date
2023-01-31
Launch site
AFWTR
Launch vehicle
Mass (kg)
RCS (m²)

Purposes: comms

External: N2YO · Heavens-Above · Gunter

§ Orbital elements

Epoch: 2026-09-20T22:00:03.000096Z

Period
95.52 min
Inclination
70.0015°
Eccentricity
0.0003275
Mean motion
15.07499150 rev/d
Perigee alt
541.6 km
Apogee alt
546.1 km
Semi-major
6,922.0 km
B*
5.3016e-3
RAAN
312.2728°
Arg perigee
323.1640°
Mean anomaly
55.3281°
Rev number
576

§ Raw data

STARLINK-56431 55431U 23014AS  26263.91670139  .00081463  00000+0  53016-2 0  99912 55431  70.0015 312.2728 0003275 323.1640  55.3281 15.07499150  5767

JSON: /api/v1/satellites/55431 · /tle

For live sub-satellite position, see the globe view (requires WebGL).

§ Visibility from observer

Set your observer location to see the next 7 days of passes ≥ 10°. The values pass through the URL so the page stays shareable.

No JS? Fill the form by hand. The geolocation button needs JavaScript.